Time,TemperatureF,DewpointF,PressureIn,WindDirection,WindDirectionDegrees,WindSpeedMPH,WindSpeedGustMPH,Humidity,HourlyPrecipIn,Conditions,Clouds,dailyrainin,SoftwareType,DateUTC
2013-08-09 08:00:00,71.0,71.0,30.00,SE,142,2.0,-999.0,99,-99.99,,,-99.99,,2013-08-09 13:00:00,
2013-08-09 08:23:00,71.0,71.0,30.00,SE,142,2.0,-999.0,99,-99.99,,,-99.99,,2013-08-09 13:23:00,
2013-08-09 08:32:00,71.0,71.0,30.00,SE,142,2.0,-999.0,99,-99.99,,,-99.99,,2013-08-09 13:32:00,
2013-08-09 08:43:00,71.0,71.0,30.00,SE,142,2.0,-999.0,99,-99.99,,,-99.99,,2013-08-09 13:43:00,
2013-08-09 08:52:00,71.0,71.0,30.00,SE,142,2.0,-999.0,99,-99.99,,,-99.99,,2013-08-09 13:52:00,
2013-08-09 09:22:00,72.0,72.0,30.01,SE,142,0.0,-999.0,99,-99.99,,,-99.99,,2013-08-09 14:22:00,
2013-08-09 09:33:00,72.0,72.0,30.01,SE,142,0.0,-999.0,99,-99.99,,,-99.99,,2013-08-09 14:33:00,
2013-08-09 09:43:00,72.0,72.0,30.01,SE,142,0.0,-999.0,99,-99.99,,,-99.99,,2013-08-09 14:43:00,
2013-08-09 09:53:00,72.0,72.0,30.01,SE,142,0.0,-999.0,99,-99.99,,,-99.99,,2013-08-09 14:53:00,
2013-08-09 10:02:00,72.0,72.0,30.01,SE,142,0.0,-999.0,99,-99.99,,,-99.99,,2013-08-09 15:02:00,
2013-08-09 10:11:00,72.0,72.0,30.01,SE,142,0.0,-999.0,99,-99.99,,,-99.99,,2013-08-09 15:11:00,
2013-08-09 10:22:00,73.0,73.0,30.02,SE,142,0.0,-999.0,99,-99.99,,,-99.99,,2013-08-09 15:22:00,
2013-08-09 10:33:00,73.0,73.0,30.02,SE,142,0.0,-999.0,99,-99.99,,,-99.99,,2013-08-09 15:33:00,
2013-08-09 10:44:00,73.0,73.0,30.02,SE,142,0.0,-999.0,99,-99.99,,,-99.99,,2013-08-09 15:44:00,
2013-08-09 10:53:00,74.0,73.0,30.02,SE,142,0.0,-999.0,98,-99.99,,,-99.99,,2013-08-09 15:53:00,
2013-08-09 11:01:00,74.0,73.0,30.02,SE,142,0.0,-999.0,98,-99.99,,,-99.99,,2013-08-09 16:01:00,
2013-08-09 11:11:00,74.0,73.0,30.02,SE,142,0.0,-999.0,98,-99.99,,,-99.99,,2013-08-09 16:11:00,
2013-08-09 11:22:00,74.0,73.0,30.03,WNW,300,2.0,-999.0,98,-99.99,,,-99.99,,2013-08-09 16:22:00,
2013-08-09 11:32:00,74.0,73.0,30.03,WNW,300,2.0,-999.0,98,-99.99,,,-99.99,,2013-08-09 16:32:00,
2013-08-09 11:43:00,74.0,73.0,30.03,WNW,300,2.0,-999.0,98,-99.99,,,-99.99,,2013-08-09 16:43:00,
2013-08-09 11:53:00,73.0,71.0,30.04,NW,322,4.0,-999.0,93,-99.99,,,-99.99,,2013-08-09 16:53:00,
2013-08-09 12:02:00,73.0,71.0,30.04,NW,322,4.0,-999.0,93,-99.99,,,-99.99,,2013-08-09 17:02:00,
2013-08-09 12:11:00,73.0,71.0,30.04,NW,322,4.0,-999.0,93,-99.99,,,-99.99,,2013-08-09 17:11:00,
2013-08-09 12:22:00,73.0,71.0,30.04,WNW,298,3.0,-999.0,93,-99.99,,,-99.99,,2013-08-09 17:22:00,
2013-08-09 12:33:00,73.0,71.0,30.04,WNW,298,3.0,-999.0,93,-99.99,,,-99.99,,2013-08-09 17:33:00,
2013-08-09 12:43:00,73.0,71.0,30.04,WNW,298,3.0,-999.0,93,-99.99,,,-99.99,,2013-08-09 17:43:00,
2013-08-09 12:52:00,72.0,70.0,30.04,NNW,338,2.0,-999.0,94,-99.99,,,-99.99,,2013-08-09 17:52:00,
2013-08-09 13:01:00,72.0,70.0,30.04,NNW,338,2.0,-999.0,94,-99.99,,,-99.99,,2013-08-09 18:01:00,
2013-08-09 13:11:00,72.0,70.0,30.04,NNW,338,2.0,-999.0,94,-99.99,,,-99.99,,2013-08-09 18:11:00,
2013-08-09 13:22:00,71.0,69.0,30.05,NW,309,3.0,-999.0,94,-99.99,,,-99.99,,2013-08-09 18:22:00,
2013-08-09 13:32:00,71.0,69.0,30.05,NW,309,3.0,-999.0,94,-99.99,,,-99.99,,2013-08-09 18:32:00,
2013-08-09 13:43:00,71.0,69.0,30.05,NW,309,3.0,-999.0,94,-99.99,,,-99.99,,2013-08-09 18:43:00,
2013-08-09 13:53:00,71.0,69.0,30.06,NW,317,3.0,-999.0,92,-99.99,,,-99.99,,2013-08-09 18:53:00,
2013-08-09 14:02:00,71.0,69.0,30.06,NW,317,3.0,-999.0,92,-99.99,,,-99.99,,2013-08-09 19:02:00,
2013-08-09 14:11:00,71.0,69.0,30.06,NW,317,3.0,-999.0,92,-99.99,,,-99.99,,2013-08-09 19:11:00,
2013-08-09 14:22:00,71.0,68.0,30.06,NNW,348,1.0,-999.0,91,-99.99,,,-99.99,,2013-08-09 19:22:00,
2013-08-09 14:32:00,71.0,68.0,30.06,NNW,348,1.0,-999.0,91,-99.99,,,-99.99,,2013-08-09 19:32:00,
2013-08-09 14:43:00,71.0,68.0,30.06,NNW,348,1.0,-999.0,91,-99.99,,,-99.99,,2013-08-09 19:43:00,
2013-08-09 14:52:00,71.0,68.0,30.06,NNW,333,1.0,-999.0,89,-99.99,,,-99.99,,2013-08-09 19:52:00,
2013-08-09 15:02:00,71.0,68.0,30.06,NNW,333,1.0,-999.0,89,-99.99,,,-99.99,,2013-08-09 20:02:00,
2013-08-09 15:11:00,71.0,68.0,30.06,NNW,333,1.0,-999.0,89,-99.99,,,-99.99,,2013-08-09 20:11:00,
2013-08-09 15:22:00,72.0,67.0,30.05,ESE,107,1.0,-999.0,85,-99.99,,,-99.99,,2013-08-09 20:22:00,
2013-08-09 15:32:00,72.0,67.0,30.05,ESE,107,1.0,-999.0,85,-99.99,,,-99.99,,2013-08-09 20:32:00,
2013-08-09 15:43:00,72.0,67.0,30.05,ESE,107,1.0,-999.0,85,-99.99,,,-99.99,,2013-08-09 20:43:00,
2013-08-09 15:52:00,73.0,67.0,30.04,East,96,1.0,-999.0,82,-99.99,,,-99.99,,2013-08-09 20:52:00,
2013-08-09 16:01:00,73.0,67.0,30.04,East,96,1.0,-999.0,82,-99.99,,,-99.99,,2013-08-09 21:01:00,
2013-08-09 16:12:00,73.0,67.0,30.04,East,96,1.0,-999.0,82,-99.99,,,-99.99,,2013-08-09 21:12:00,
2013-08-09 16:22:00,73.0,67.0,30.04,East,101,1.0,-999.0,81,-99.99,,,-99.99,,2013-08-09 21:22:00,
2013-08-09 16:33:00,73.0,67.0,30.04,East,101,1.0,-999.0,81,-99.99,,,-99.99,,2013-08-09 21:33:00,
2013-08-09 16:43:00,73.0,67.0,30.04,East,101,1.0,-999.0,81,-99.99,,,-99.99,,2013-08-09 21:43:00,
2013-08-09 16:52:00,73.0,67.0,30.04,East,101,1.0,-999.0,81,-99.99,,,-99.99,,2013-08-09 21:52:00,
2013-08-09 17:22:00,74.0,67.0,30.04,East,84,1.0,-999.0,80,-99.99,,,-99.99,,2013-08-09 22:22:00,
2013-08-09 17:32:00,74.0,67.0,30.04,East,84,1.0,-999.0,80,-99.99,,,-99.99,,2013-08-09 22:32:00,
2013-08-09 17:43:00,74.0,67.0,30.04,East,84,1.0,-999.0,80,-99.99,,,-99.99,,2013-08-09 22:43:00,
2013-08-09 17:52:00,73.0,66.0,30.04,SE,126,1.0,-999.0,80,-99.99,,,-99.99,,2013-08-09 22:52:00,
2013-08-09 18:01:00,73.0,66.0,30.04,SE,126,1.0,-999.0,80,-99.99,,,-99.99,,2013-08-09 23:01:00,
2013-08-09 18:11:00,73.0,66.0,30.04,SE,126,1.0,-999.0,80,-99.99,,,-99.99,,2013-08-09 23:11:00,
2013-08-09 18:22:00,73.0,68.0,30.04,East,80,1.0,-999.0,84,-99.99,,,-99.99,,2013-08-09 23:22:00,
2013-08-09 18:32:00,73.0,68.0,30.04,East,80,1.0,-999.0,84,-99.99,,,-99.99,,2013-08-09 23:32:00,
2013-08-09 18:43:00,73.0,68.0,30.04,East,80,1.0,-999.0,84,-99.99,,,-99.99,,2013-08-09 23:43:00,
2013-08-09 18:52:00,72.0,67.0,30.04,NNW,348,0.0,-999.0,85,-99.99,,,-99.99,,2013-08-09 23:52:00,
2013-08-09 19:01:00,72.0,67.0,30.04,NNW,348,0.0,-999.0,85,-99.99,,,-99.99,,2013-08-10 00:01:00,
2013-08-09 19:11:00,72.0,67.0,30.04,NNW,348,0.0,-999.0,85,-99.99,,,-99.99,,2013-08-10 00:11:00,
2013-08-09 19:22:00,71.0,67.0,30.06,NNW,348,0.0,-999.0,88,-99.99,,,-99.99,,2013-08-10 00:22:00,
2013-08-09 19:33:00,71.0,67.0,30.06,NNW,348,0.0,-999.0,88,-99.99,,,-99.99,,2013-08-10 00:33:00,
2013-08-09 19:40:00,70.0,67.0,30.05,NNW,348,0.0,-999.0,89,-99.99,,,-99.99,,2013-08-10 00:40:00,
2013-08-09 19:43:00,71.0,67.0,30.06,NNW,348,0.0,-999.0,88,-99.99,,,-99.99,,2013-08-10 00:43:00,
2013-08-09 19:53:00,71.0,67.0,30.06,NNW,348,0.0,-999.0,88,-99.99,,,-99.99,,2013-08-10 00:53:00,
2013-08-09 20:01:00,70.0,67.0,30.05,NNW,348,0.0,-999.0,89,-99.99,,,-99.99,,2013-08-10 01:01:00,
2013-08-09 20:11:00,70.0,67.0,30.05,NNW,348,0.0,-999.0,89,-99.99,,,-99.99,,2013-08-10 01:11:00,
2013-08-09 20:22:00,70.0,67.0,30.05,NNW,348,0.0,-999.0,89,-99.99,,,-99.99,,2013-08-10 01:22:00,
2013-08-09 20:32:00,70.0,67.0,30.05,NNW,348,0.0,-999.0,89,-99.99,,,-99.99,,2013-08-10 01:32:00,
2013-08-09 21:11:00,69.0,66.0,30.06,NNW,344,0.0,-999.0,89,-99.99,,,-99.99,,2013-08-10 02:11:00,
2013-08-09 21:21:00,69.0,66.0,30.06,NNW,344,0.0,-999.0,89,-99.99,,,-99.99,,2013-08-10 02:21:00,
2013-08-09 21:32:00,69.0,66.0,30.06,NNW,344,0.0,-999.0,89,-99.99,,,-99.99,,2013-08-10 02:32:00,
2013-08-09 21:42:00,69.0,66.0,30.06,NNW,344,0.0,-999.0,89,-99.99,,,-99.99,,2013-08-10 02:42:00,
2013-08-09 21:52:00,69.0,66.0,30.06,NNW,344,0.0,-999.0,89,-99.99,,,-99.99,,2013-08-10 02:52:00,
2013-08-09 22:42:00,69.0,66.0,30.09,NE,47,0.0,-999.0,90,-99.99,,,-99.99,,2013-08-10 03:42:00,
2013-08-09 22:52:00,69.0,66.0,30.09,NE,47,0.0,-999.0,90,-99.99,,,-99.99,,2013-08-10 03:52:00,
2013-08-09 23:02:00,69.0,66.0,30.09,NE,47,0.0,-999.0,90,-99.99,,,-99.99,,2013-08-10 04:02:00,
2013-08-09 23:12:00,69.0,66.0,30.09,NE,47,0.0,-999.0,90,-99.99,,,-99.99,,2013-08-10 04:12:00,
2013-08-09 23:22:00,69.0,66.0,30.09,NE,47,0.0,-999.0,90,-99.99,,,-99.99,,2013-08-10 04:22:00,
2013-08-09 23:53:00,68.0,66.0,30.09,East,90,0.0,-999.0,92,-99.99,,,-99.99,,2013-08-10 04:53:00,